Regional Weather Roundup
Issued by NWS

Home | Current Version | Previous Version | Graphics & Text | Print | Product List | Glossary On
Versions: 1 2 3 4 5 6 7 8 9 10 11 12 13 14 15 16 17 18 19 20 21 22 23 24 25 26 27 28 29 30 31 32 33 34 35 36 37 38 39 40 41 42 43 44 45 46 47 48 49 50
693
ASUS43 KDTX 230401
RWRMI
MICHIGAN HOURLY REGIONAL WEATHER ROUNDUP
NATIONAL WEATHER SERVICE DETROIT/PONTIAC MI
1100 PM EST WED NOV 22 2017

NOTE: "FAIR" INDICATES FEW OR NO CLOUDS BELOW 12,000 FEET WITH NO
SIGNIFICANT WEATHER AND/OR OBSTRUCTION TO VISIBILITY.

MIZ047>049-052>055-059>063-066>070-074>076-081>083-230500-
SOUTHEAST LOWER MICHIGAN

CITY           SKY/WX    TMP DP  RH WIND       PRES   REMARKS
ADRIAN         PTCLDY    26  21  81 CALM      30.22F
ALMA           CLOUDY    30  23  77 S5        30.16F WCI  25
ANN ARBOR      PTCLDY    19  17  92 CALM      30.19F
BAD AXE        CLOUDY    26  19  73 SW5       30.17F WCI  20
CARO           PTCLDY    26  19  74 CALM      30.17F
DETROIT CITY   CLOUDY    27  18  69 CALM      30.21F
DETROIT        CLOUDY    28  20  71 CALM      30.22F
FLINT          PTCLDY    28  19  69 S7        30.18F WCI  21
GROSSE ILE     CLOUDY    29  19  66 SW5       30.21F WCI  24
HILLSDALE      CLOUDY    27  19  74 S5        30.18S WCI  21
HOWELL         CLOUDY    27  20  76 S5        30.18F WCI  21

CITY           SKY/WX    TMP DP  RH WIND       PRES   REMARKS
JACKSON        CLOUDY    27  19  72 S6        30.18F WCI  20
LAMBERTVILLE   CLOUDY    31  21  67 SW5       30.22F WCI  26
LANSING        CLOUDY    29  20  69 S7        30.18F WCI  22
LAPEER         FAIR      26  20  76 S3        30.18F
MASON          PTCLDY    28  22  77 CALM      30.18F
MONROE         PTCLDY    29  20  70 SW5       30.21F WCI  24
MT. CLEMENS    PTCLDY    25  21  87 CALM      30.20F
PONTIAC        MOCLDY    24  20  84 S3        30.17F
PORT HOPE        N/A     29  18  63 SW3       30.16F
PORT HURON     PTCLDY    25  19  80 CALM      30.21F
TRI CITIES     CLOUDY    29  21  72 S6        30.17F WCI  23
MIDLAND        CLOUDY    30  20  66 S5        30.15F WCI  25
TROY           PTCLDY    29  19  66 CALM      30.22F
SAGINAW HB     CLOUDY    28  21  74 S6        30.17F WCI  22
$$
MIZ043>046-050>051-056>058-064>065-071>073-077>080-230500-
SOUTHWEST LOWER MICHIGAN

CITY           SKY/WX    TMP DP  RH WIND       PRES   REMARKS
BATTLE CREEK   CLOUDY    30  23  75 S6        30.18F WCI  24
BENTON HARBOR  MOCLDY    31  21  66 S7        30.19S WCI  24
BIG RAPIDS     CLOUDY    29  22  75 S3        30.13F
COLDWATER      MOCLDY    29  22  74 S7        30.18F WCI  22
FREMONT        CLOUDY    29  24  80 CALM      30.14F
HOLLAND        CLOUDY    31  24  75 S8        30.17F WCI  23
GRAND RAPIDS   CLOUDY    32  25  75 SW7       30.16F WCI  26
IONIA          CLOUDY    31  23  72 SW8       30.16S WCI  23
KALAMAZOO      CLOUDY    30  22  72 SW6       30.19F WCI  24
LUDINGTON      CLOUDY    34  22  61 SW13      30.12F WCI  25
MARSHALL       CLOUDY    29  21  71 S3        30.17F
MOUNT PLEASANT CLOUDY    31  21  65 S3        30.14F
MUSKEGON       CLOUDY    35  22  58 SW14      30.16F WCI  26
SOUTH HAVEN    MOCLDY    32  22  67 S8        30.18F WCI  25
$$
MIZ016>042-230500-
NORTHERN LOWER MICHIGAN

CITY           SKY/WX    TMP DP  RH WIND       PRES   REMARKS
ALPENA         CLOUDY    30  19  63 S6        30.14F WCI  24
BEAVER ISLAND  CLOUDY    33  25  71 SW14G21   30.06F WCI  24
BELLAIRE       CLOUDY    30  23  75 S5        30.12F WCI  25
CADILLAC       CLOUDY    26  20  78 SW8       30.09F WCI  18
CHARLEVOIX     CLOUDY    32  23  70 S6        30.12F WCI  26
FRANKFORT      CLOUDY    35  22  58 SW8G16    30.11F WCI  28
GAYLORD        CLOUDY    25  17  72 SW10      30.09S WCI  15
GRAYLING       CLOUDY    27  18  69 SW3       30.12F
HARBOR SPRINGS CLOUDY    30  21  68 S9        30.09F WCI  22
HOUGHTON LAKE  CLOUDY    27  18  69 SW8       30.12F WCI  19
MANISTEE       CLOUDY    29  22  75 CALM      30.13S
OSCODA         CLOUDY    29  16  59 SW6       30.15S WCI  23
PELLSTON       CLOUDY    30  20  66 S6        30.10F WCI  24
ROGERS CITY    CLOUDY    30  19  62 SW6       30.13F WCI  24
TRAVERSE CITY  CLOUDY    30  20  66 SW7       30.11F WCI  23
$$
MIZ007>008-015-230500-
EASTERN UPPER MICHIGAN

CITY           SKY/WX    TMP DP  RH WIND       PRES   REMARKS
KINROSS        CLOUDY    29  24  82 S10       30.03F WCI  20
MACKINAC ISLAN CLOUDY    32  21  64 S12G24    30.06F WCI  23
NEWBERRY       CLOUDY    26  22  87 SW6       30.02F WCI  19
S. S. MARIE    CLOUDY    28  23  81 S3        30.03F
MUNISING         N/A     27  17  66 S12       30.02F WCI  17
$$
MIZ004>006-011>014-085-230500-
CENTRAL UPPER MICHIGAN

CITY           SKY/WX    TMP DP  RH WIND       PRES   REMARKS
MANISTIQUE     CLOUDY    29  18  62 W7        30.05F WCI  22
ESCANABA       CLOUDY    27  17  66 SW6       30.07F WCI  20
MENOMINEE      CLOUDY    28  17  63 SW6       30.09F WCI  22
SAWYER-GWINN   CLOUDY    25  15  66 SW10      29.99F WCI  14
$$
MIZ001>003-009>011-084-230500-
WESTERN UPPER MICHIGAN

CITY           SKY/WX    TMP DP  RH WIND       PRES   REMARKS
IRON MOUNTAIN  CLOUDY    26  12  55 SW7       30.02F WCI  18
HOUGHTON       CLOUDY    26  13  57 SW10      29.95F WCI  16
COPPER HARBOR    N/A     27  14  58 VRB7      29.98S WCI  19
IRONWOOD       CLOUDY    22  18  85 SW9       29.99F WCI  12
$$

ABBREVIATIONS USED IN REMARKS
   TC - TEMPERATURE IN CELSIUS
  WCI - WIND CHILL INDEX
   HX - HEAT INDEX
  VSB - VISIBILITY





USA.gov is the U.S. government's official web portal to all federal, state and local government web resources and services.